Wind_Speed
51 52 55 56 56 56 58 59 57 57 58 57 55 54 56 57 59 61 61 59 56 54 48 43 43 45 46 46 46 44 43 42 40 41 38 31 28 29 30 31 31 31 29 28 28 28 27 26 25 24 23 22 22 22 23 23 22 21 21 22 23 23 22 19 17 14 12 10 9 10 13 12 11 9 8 8 7 7 8 9 8 7 6 5 5 5 6 7
53 52 54 56 55 54 55 58 58 57 57 58 56 53 54 56 56 58 60 59 57 55 52 47 44 45 46 46 46 45 44 44 43 42 38 32 31 30 29 31 31 30 30 28 28 28 27 26 26 26 25 23 23 22 23 23 23 23 23 24 24 23 22 20 18 16 12 10 9 10 13 12 10 10 9 9 7 7 9 9 9 8 7 7 7 6 6 7
54 52 52 55 56 54 53 54 57 57 56 58 58 54 52 54 55 55 56 58 58 56 55 51 46 44 46 46 45 45 44 44 46 44 38 36 34 31 31 31 31 31 30 28 27 28 28 27 27 26 25 24 24 23 23 23 24 24 25 26 24 22 22 20 18 17 14 11 10 10 12 11 11 10 10 9 8 8 9 10 10 10 9 9 8 8 7 7
54 53 50 53 55 55 53 51 54 57 57 57 58 56 52 53 54 54 54 55 56 55 55 53 48 45 44 45 44 44 42 42 47 44 38 39 37 34 34 33 32 32 31 29 29 28 28 28 29 28 26 25 25 24 24 23 24 25 27 27 24 21 21 21 20 19 17 14 11 11 11 11 11 11 11 11 11 10 10 9 10 10 10 10 9 9 9 8
54 54 51 51 55 56 53 51 52 54 57 56 57 58 55 52 52 53 53 53 53 53 54 52 51 48 43 41 42 44 41 40 46 43 39 42 40 37 37 35 34 33 32 31 30 30 30 30 30 30 28 27 26 26 25 24 25 25 26 26 24 22 21 22 22 22 21 19 15 13 12 12 12 13 13 14 13 11 10 10 9 10 11 11 11 10 9 9
54 55 52 51 54 55 53 51 49 50 55 56 55 57 57 54 51 51 52 52 50 50 51 51 52 52 48 43 41 43 43 39 41 42 42 42 41 40 38 37 37 35 34 33 32 30 31 32 31 31 30 28 28 27 26 26 26 25 26 26 24 23 23 22 23 25 25 24 20 17 16 15 15 15 17 17 14 12 13 11 9 10 11 11 11 10 9 10
55 55 54 51 53 54 53 51 49 48 51 56 55 56 58 56 53 50 51 51 51 48 46 47 50 51 50 49 44 39 40 40 36 38 42 42 41 41 40 38 38 38 37 35 34 31 30 32 32 31 30 30 29 28 27 27 26 26 26 25 24 24 24 23 24 26 27 27 26 23 21 19 18 18 20 20 16 14 15 13 11 11 12 11 11 11 11 10
57 56 54 51 53 54 52 52 50 47 49 53 55 56 57 58 56 52 51 50 50 49 45 44 46 48 48 49 49 42 40 40 33 33 38 41 42 41 42 41 39 39 38 36 34 32 30 31 32 31 31 31 29 28 28 28 27 27 26 25 25 25 24 25 26 27 28 29 29 28 26 24 22 23 24 22 17 16 17 16 14 14 13 13 12 12 12 11
58 56 54 51 52 54 53 52 50 47 47 50 53 55 57 57 57 54 52 51 49 49 46 43 42 41 43 46 49 48 42 37 30 28 31 37 41 41 41 41 40 39 38 36 34 33 31 30 30 30 30 29 28 28 27 28 29 28 26 26 26 26 26 26 27 28 29 30 30 30 29 28 27 28 30 26 21 19 19 19 18 17 16 15 14 13 13 12
57 55 54 52 51 53 54 53 51 49 46 46 48 53 56 55 56 55 53 51 48 47 45 43 39 35 37 40 45 51 46 36 29 22 24 33 39 40 41 40 39 39 37 35 34 34 32 29 27 26 27 28 28 29 29 29 30 27 26 27 27 26 27 28 28 29 30 31 31 30 30 30 29 32 34 30 26 23 22 22 22 21 20 18 16 15 15 14
58 55 53 52 51 52 55 54 53 52 47 45 46 50 54 54 55 55 53 51 48 46 44 42 39 34 35 36 41 49 48 43 37 25 22 31 39 40 40 39 38 37 35 34 32 32 30 26 26 26 26 28 29 29 30 30 29 28 28 28 28 28 28 30 30 30 30 31 30 30 30 31 31 35 35 31 29 27 25 25 25 25 23 21 19 17 18 16
58 55 53 53 52 51 55 56 54 53 50 49 48 48 51 52 53 54 53 51 48 46 44 41 39 35 34 35 39 45 45 45 44 36 26 27 37 42 39 38 39 36 33 31 29 29 28 25 24 25 25 27 29 29 29 30 29 28 29 30 29 29 30 31 31 31 31 30 30 29 31 33 33 35 33 28 28 29 29 29 29 28 26 23 22 20 20 19
58 56 53 52 52 51 54 57 55 53 53 53 49 45 47 49 50 51 50 50 49 47 44 41 39 37 35 36 38 40 41 41 42 44 37 26 29 38 40 39 38 36 33 29 28 27 27 26 24 25 27 26 28 28 28 28 28 30 30 31 30 29 32 33 31 32 32 30 30 28 31 34 31 31 30 27 27 29 31 32 31 31 29 27 25 24 23 22
59 56 52 52 51 51 53 57 57 54 55 54 49 44 45 46 46 47 47 47 47 45 43 40 39 38 36 37 39 38 38 37 35 43 49 38 27 29 37 39 36 36 35 32 29 28 26 26 26 27 28 28 28 27 26 26 27 31 31 30 32 30 32 33 31 32 32 30 30 28 33 34 27 25 28 27 27 28 30 31 31 32 32 31 29 27 25 24
59 56 52 52 51 50 53 57 59 56 55 54 48 45 44 43 43 44 44 43 43 41 39 38 39 38 36 36 38 38 38 36 32 37 49 50 40 29 28 35 38 36 35 34 31 30 29 27 28 29 29 29 29 26 26 26 26 29 30 30 32 32 30 31 30 31 30 29 29 28 32 33 25 22 24 24 26 27 29 29 29 31 32 32 31 29 27 26
58 56 53 52 50 50 52 57 60 57 54 51 46 45 43 42 42 42 41 40 39 38 36 36 38 38 38 37 36 36 37 34 31 33 41 49 51 42 28 27 37 39 36 35 33 31 30 29 29 29 30 30 30 29 26 26 28 30 33 32 32 33 31 29 29 30 28 27 30 29 32 34 27 23 23 21 21 21 23 25 26 27 29 30 31 30 30 28
56 56 54 52 51 50 52 56 60 59 56 51 46 44 41 41 42 41 40 38 36 36 36 36 34 34 35 36 36 38 37 31 28 31 34 41 48 51 42 31 33 40 40 36 34 32 31 30 30 30 31 31 31 30 27 30 34 33 34 33 29 29 29 30 29 29 28 29 31 31 34 36 30 27 26 24 22 21 20 21 22 23 25 28 30 30 31 30
56 56 55 52 51 50 51 55 59 59 57 52 47 44 40 39 41 40 39 38 36 35 36 35 34 33 34 35 39 41 37 29 26 28 30 34 40 47 50 41 32 33 38 38 34 34 34 31 31 31 32 34 35 36 35 34 36 35 34 32 29 26 27 31 31 29 29 31 33 32 35 37 33 30 30 29 28 27 24 23 23 24 25 27 30 31 31 31
57 56 54 53 52 49 50 54 57 58 56 52 47 44 41 39 39 39 39 39 39 40 40 40 40 38 37 37 38 37 34 28 25 27 28 30 34 36 41 44 40 33 32 35 35 35 34 32 32 34 37 40 40 42 41 35 31 32 33 32 31 31 32 33 32 29 29 31 33 33 34 37 35 33 31 30 30 30 28 26 26 25 26 28 29 31 31 30
58 55 54 52 51 49 50 53 56 57 55 52 49 46 45 42 41 40 40 39 40 41 41 41 43 41 39 39 38 35 32 30 29 30 30 29 30 31 31 37 44 42 34 29 30 33 33 34 37 40 42 43 41 38 38 35 30 27 28 30 33 33 34 34 32 29 28 29 32 31 31 36 37 35 32 30 30 31 29 26 25 25 25 26 28 30 31 29
58 54 54 52 50 49 49 51 55 58 55 52 50 50 51 50 49 48 45 42 40 39 39 39 39 41 41 39 38 37 33 32 32 31 32 31 30 30 31 33 39 47 45 31 23 27 34 37 41 43 40 39 38 35 33 33 32 28 26 28 32 34 34 32 29 27 27 30 32 30 29 34 37 35 32 31 31 30 29 27 26 26 25 24 25 28 30 29
57 54 55 52 50 49 48 50 53 56 53 50 50 51 52 51 50 49 47 46 44 42 40 39 38 40 42 40 38 36 32 31 32 32 32 31 31 32 32 34 37 44 49 41 28 22 30 39 42 41 39 36 35 33 31 32 33 31 28 27 30 33 32 29 26 26 26 29 30 28 29 34 35 35 34 32 32 29 28 29 27 26 26 24 22 23 26 27
58 55 54 50 49 47 46 49 51 52 51 50 51 50 49 49 47 45 44 44 45 44 41 39 39 40 41 41 38 34 33 32 32 33 33 31 31 32 32 33 36 39 43 48 43 27 24 36 42 38 36 37 35 33 31 32 33 32 31 30 31 31 28 25 25 25 26 29 30 30 32 36 35 36 37 32 30 29 28 30 29 27 26 23 22 22 24 25
58 55 53 50 47 45 45 47 49 51 51 50 50 49 47 46 46 44 41 39 41 43 43 39 39 40 40 40 36 33 31 31 32 33 34 35 34 32 32 31 32 36 36 41 48 41 28 27 35 40 39 38 36 34 34 33 33 33 33 33 33 30 27 25 23 24 26 28 30 29 31 40 40 38 39 34 30 31 29 30 30 27 25 24 24 24 24 24
58 55 52 50 47 45 46 47 49 51 51 50 49 48 46 45 44 43 39 35 36 40 43 41 40 41 41 39 36 32 28 28 31 32 32 35 36 35 34 31 31 34 33 30 35 45 41 26 25 34 39 39 38 36 35 34 35 35 35 36 34 30 27 25 24 23 24 26 27 22 18 27 34 35 37 34 33 34 31 31 31 27 26 26 26 25 24 25
57 55 52 49 47 48 47 48 49 51 52 52 51 48 46 45 43 41 38 31 30 38 42 42 41 41 41 40 37 30 24 27 29 28 30 31 33 36 36 34 33 32 31 28 26 37 47 38 28 28 31 36 38 37 35 34 35 37 38 36 33 32 29 26 25 23 21 20 21 18 13 18 28 33 33 31 32 34 33 34 33 30 29 28 28 27 25 25
57 55 52 49 49 51 51 52 51 52 54 53 52 49 46 45 42 41 35 18 17 34 42 43 41 39 41 41 38 33 25 25 28 28 30 30 31 35 37 36 35 32 30 29 30 34 44 47 41 35 31 31 36 39 38 36 37 40 41 36 34 35 32 28 26 24 23 21 18 18 18 21 32 41 38 33 34 33 33 34 33 33 33 31 30 28 26 25
57 56 53 50 51 53 54 55 55 55 55 54 53 50 47 45 41 42 30 6 8 30 39 44 44 39 40 39 38 37 28 24 29 32 29 29 32 34 37 38 36 35 34 33 37 39 41 45 45 44 39 34 38 42 40 39 41 42 39 35 35 33 32 31 25 23 25 22 21 25 22 17 28 41 39 37 41 39 35 32 31 32 32 32 30 27 26 25
56 58 56 52 50 52 52 52 54 55 54 54 53 50 48 45 42 39 23 5 13 28 33 40 45 41 40 39 38 39 33 27 27 29 30 31 35 35 35 38 35 36 37 35 37 36 34 38 41 45 47 43 41 40 38 40 42 42 37 33 34 30 30 29 22 24 24 18 21 31 28 17 23 40 41 39 43 41 35 30 29 30 30 31 31 29 28 27
53 56 58 56 52 52 52 49 49 52 53 52 50 49 47 43 41 30 12 10 20 25 28 36 43 46 45 41 39 40 40 33 26 25 30 34 35 35 34 34 34 37 38 36 36 35 32 33 35 39 40 38 37 37 39 42 41 41 36 33 31 27 29 28 24 25 17 13 27 37 35 23 18 32 37 41 45 40 34 31 28 27 26 28 29 30 30 29
52 53 55 58 56 54 53 51 50 51 50 50 48 48 45 40 38 22 7 18 24 22 30 34 38 46 49 46 42 41 43 40 34 30 31 34 35 38 37 34 34 34 35 38 38 37 35 33 35 39 37 35 35 38 41 41 40 36 30 32 28 20 24 24 22 21 7 9 30 39 39 31 22 23 22 27 38 35 32 30 25 24 24 25 26 27 30 32
51 51 50 52 54 55 55 53 54 52 49 51 48 46 45 35 26 16 14 24 20 19 33 35 36 44 47 49 46 43 45 44 43 38 34 35 37 41 42 39 39 34 32 40 41 39 40 41 39 38 39 39 37 37 38 36 39 35 27 29 22 10 11 12 10 10 6 16 28 26 25 28 35 44 36 33 42 40 36 33 28 28 28 26 26 26 28 31
51 49 48 48 48 53 57 54 54 51 49 51 47 47 46 27 16 22 29 31 17 19 36 36 38 46 46 50 50 46 44 44 48 46 40 37 37 42 43 41 43 38 32 39 43 39 38 40 41 39 39 43 42 41 39 37 41 41 35 32 25 10 3 6 6 3 8 23 28 20 17 19 31 44 40 40 44 41 38 34 30 30 28 26 27 28 30 32
50 49 47 47 46 48 54 54 52 50 49 50 47 48 41 20 20 34 38 36 21 20 37 37 37 45 44 47 52 50 45 42 47 49 45 42 38 40 44 43 44 41 35 35 40 40 32 29 40 45 44 46 48 48 48 45 43 45 46 41 34 22 10 6 7 6 10 16 17 15 12 11 22 29 26 29 34 33 32 28 25 24 20 18 20 22 25 28
49 48 47 47 45 44 48 49 48 47 47 49 48 47 38 23 30 43 42 40 28 22 34 38 36 40 40 43 48 50 49 43 43 45 45 45 43 42 46 46 45 44 39 30 29 36 35 32 41 48 48 48 47 48 50 44 36 40 46 42 39 36 26 12 7 12 15 9 8 14 15 20 36 43 37 32 33 34 30 24 20 18 15 14 15 16 19 21
48 48 47 46 45 42 44 45 44 45 47 49 48 44 41 37 42 49 49 48 40 30 35 38 37 39 39 39 41 44 48 43 39 40 41 44 46 46 46 46 46 46 45 38 29 28 28 31 38 41 43 47 46 46 47 44 39 39 43 46 48 46 36 20 9 10 10 6 10 16 21 32 41 46 47 41 38 37 33 29 25 22 22 22 23 25 27 27
47 46 46 45 44 41 43 44 42 44 46 49 50 46 46 47 47 50 52 53 47 37 36 37 36 39 39 38 40 42 44 42 39 38 39 39 40 46 48 45 44 47 48 45 38 30 22 24 33 36 39 44 45 44 45 48 47 41 41 48 48 40 35 26 9 1 4 4 9 15 27 35 30 33 39 36 35 36 31 31 31 30 30 30 31 33 34 34
45 45 44 43 42 40 41 43 43 44 45 48 50 48 48 48 45 45 49 52 49 39 36 36 34 37 40 40 42 44 43 42 41 38 39 37 35 43 51 49 47 47 46 45 41 35 26 22 25 32 37 40 42 42 42 47 50 48 46 46 39 28 25 27 15 4 5 4 4 14 27 32 35 41 40 32 35 35 28 27 27 25 25 25 28 33 36 35
45 44 43 42 41 39 40 42 43 46 47 49 50 48 48 48 45 44 45 50 51 43 37 35 33 36 40 40 42 45 45 45 45 41 38 37 37 44 50 51 51 49 47 47 47 43 35 25 22 29 35 35 38 44 46 47 49 50 48 43 40 33 25 28 28 16 9 5 5 10 13 23 44 56 50 45 47 42 32 26 23 22 22 22 24 27 28 27
44 42 41 40 41 41 41 41 43 46 47 49 51 47 47 49 48 46 43 45 49 46 41 37 34 35 39 40 40 42 44 47 47 44 40 38 40 45 47 46 49 51 48 47 48 47 41 32 24 24 29 33 38 44 50 53 51 51 50 44 43 40 28 26 31 27 17 7 4 5 6 26 49 50 43 43 42 37 32 28 28 29 29 29 29 27 22 20
41 39 38 40 41 42 43 42 43 46 46 48 49 47 45 47 48 48 43 41 44 46 46 43 39 37 37 38 39 40 42 45 45 44 42 41 42 44 46 45 46 49 49 48 49 48 44 40 35 28 29 37 42 44 48 54 56 56 57 55 53 50 38 22 17 26 29 18 11 7 8 33 50 41 37 38 33 32 31 29 32 31 28 30 32 29 25 27
40 40 38 40 43 43 45 45 43 44 47 48 48 48 46 45 46 48 45 41 41 44 46 44 41 39 37 37 39 40 41 43 46 45 44 45 48 48 47 47 47 47 49 50 52 53 49 46 42 37 35 37 41 44 44 47 54 57 57 58 55 51 46 30 15 24 34 31 29 18 11 36 55 46 43 45 39 38 35 31 32 29 26 31 34 33 33 36
40 40 37 39 43 45 47 46 44 45 46 46 46 48 48 45 45 46 47 45 42 43 45 44 43 42 40 39 39 40 40 40 43 47 47 48 52 51 47 46 47 47 48 48 50 52 49 44 40 37 37 39 41 45 47 47 50 53 54 56 52 48 51 46 35 33 33 33 35 19 10 39 62 53 51 51 44 44 41 35 32 29 26 28 31 36 38 36
42 40 37 37 42 46 48 49 48 48 48 47 46 47 47 46 45 46 49 49 47 46 46 46 46 46 45 43 40 41 42 38 38 44 48 48 48 48 48 49 48 47 48 49 50 51 49 46 41 30 22 24 28 31 36 43 49 54 56 57 55 53 52 49 42 34 26 31 37 19 12 43 64 56 52 51 45 45 42 35 31 28 26 25 26 30 32 29
45 41 37 38 40 45 49 50 50 51 51 49 48 48 48 48 47 48 48 50 51 51 48 46 47 48 47 46 43 42 42 40 38 40 44 47 47 46 48 52 51 50 51 50 50 53 50 48 47 33 15 12 16 21 33 44 49 52 56 57 56 54 53 51 47 36 25 32 41 32 29 53 66 57 51 47 42 42 37 28 27 28 27 27 27 27 29 27
45 42 41 44 42 44 49 49 49 50 51 50 48 49 50 49 49 49 47 47 50 52 51 49 48 46 45 45 44 42 43 44 41 39 42 45 46 46 48 52 53 54 54 50 48 52 51 49 51 47 38 35 32 32 40 49 47 46 50 55 59 59 59 58 51 43 39 39 42 44 49 59 65 60 57 50 41 39 33 24 25 28 26 26 26 27 29 28
44 42 46 52 47 44 48 49 49 50 51 50 49 49 50 50 49 48 45 46 48 51 53 52 49 45 44 46 46 43 45 47 46 46 47 46 45 45 47 51 53 54 54 49 47 51 53 51 54 55 54 55 49 37 33 36 41 47 52 57 62 62 62 60 53 52 53 40 34 46 54 57 63 64 61 55 45 38 34 28 28 29 27 23 22 23 25 25
44 42 46 52 48 46 51 52 52 52 51 51 50 49 50 50 48 47 47 47 47 49 51 52 51 51 49 47 47 46 45 45 47 49 50 47 45 46 49 50 51 53 53 50 49 53 54 53 57 59 59 61 59 50 40 32 32 41 49 54 60 61 61 62 62 64 62 46 44 57 58 58 65 64 60 61 54 43 37 34 33 32 26 23 23 25 25 26
46 44 45 49 46 45 51 53 52 54 54 52 51 49 49 51 50 49 49 49 49 49 50 52 53 54 53 48 47 50 49 47 49 51 52 51 47 46 49 48 48 51 53 53 52 53 52 52 53 54 57 61 61 58 55 46 35 34 37 43 51 57 59 61 63 66 64 56 58 63 58 59 64 61 60 64 59 49 41 36 34 31 28 26 25 28 29 29
48 48 48 51 48 44 50 54 53 54 54 53 53 51 50 52 52 50 49 48 49 49 49 51 51 52 52 48 46 53 56 53 53 52 52 52 49 47 48 47 47 50 52 54 53 51 51 51 49 47 47 52 57 57 56 54 48 41 37 36 41 48 52 56 60 62 61 59 62 63 60 64 64 60 62 63 57 51 46 39 35 32 28 28 29 32 35 34
49 50 50 53 50 43 46 53 53 53 53 53 54 53 51 52 52 51 50 47 48 49 49 50 48 45 47 45 41 49 57 56 55 54 51 51 52 49 47 47 48 47 50 55 55 54 53 51 48 43 38 42 51 50 49 52 50 48 47 43 41 43 46 51 58 62 62 61 62 63 64 65 64 62 65 65 60 57 54 47 42 39 36 35 36 38 40 40
43 48 51 53 50 41 40 48 50 49 50 51 53 53 51 51 50 50 49 44 42 44 45 46 42 37 40 43 36 34 39 39 41 46 45 45 50 50 46 46 48 48 49 52 55 57 57 53 49 42 35 41 51 49 49 47 37 38 51 53 49 49 50 51 56 61 65 63 59 62 65 64 63 64 66 66 65 64 62 56 52 51 50 47 44 45 44 42
Wind_Direction
230 230 228 226 224 222 221 221 221 218 215 212 212 214 214 214 215 218 221 223 223 221 218 216 216 215 216 218 219 221 221 220 220 219 219 218 216 213 214 216 216 219 221 219 216 212 209 209 212 212 213 216 219 220 220 218 218 220 223 227 228 228 225 222 224 225 225 227 224 225 230 234 240 251 263 276 296 314 313 308 311 324 327 311 300 297 297 293
226 228 227 227 225 222 221 221 221 220 216 213 211 212 215 215 214 216 219 222 224 223 220 217 216 215 215 217 218 218 220 219 219 219 216 215 217 215 214 216 217 220 221 221 217 214 212 210 212 213 212 215 218 220 220 218 218 221 224 227 228 228 225 223 227 227 227 229 223 225 228 228 234 243 257 270 290 311 314 308 305 314 323 320 313 304 299 294
222 225 226 227 226 222 220 219 220 220 217 214 211 211 213 215 214 214 217 220 223 223 223 221 217 214 214 216 217 216 219 219 219 218 213 214 218 217 216 217 218 220 221 221 217 214 213 212 213 214 213 214 218 220 220 219 219 222 226 230 229 227 226 226 230 229 227 223 214 222 227 225 232 239 250 263 279 298 309 310 304 303 308 316 320 313 300 290
220 223 224 226 226 222 219 218 218 219 218 215 213 211 211 214 215 213 215 218 221 223 224 223 220 216 212 213 215 215 217 220 222 217 213 216 217 218 219 218 218 220 221 221 218 214 212 213 214 214 214 214 217 221 223 221 221 223 226 232 232 229 230 231 234 234 232 226 213 219 228 230 235 240 248 259 272 290 300 302 304 302 301 304 308 312 305 293
218 221 222 223 225 223 219 217 218 218 218 215 214 213 211 212 214 214 214 216 219 222 223 224 224 221 217 214 212 213 215 221 225 217 211 216 216 217 220 219 219 220 221 222 219 215 213 214 214 213 213 214 216 220 224 223 223 225 227 232 233 231 233 234 237 238 237 235 224 219 228 234 238 242 251 259 268 280 281 282 297 302 300 296 296 305 306 295
216 218 219 220 223 223 219 217 217 217 217 216 214 213 212 211 211 214 215 215 217 220 222 223 224 223 222 218 211 208 209 217 226 218 211 216 215 216 220 220 221 222 222 223 223 218 214 215 216 216 214 214 216 218 223 226 226 228 229 231 232 231 231 232 235 238 239 240 238 231 230 232 236 245 253 259 264 269 268 273 285 289 291 292 292 295 298 294
216 217 217 218 221 221 218 216 216 215 216 215 213 212 213 211 209 212 215 214 215 217 220 221 223 224 223 221 217 210 207 211 222 220 214 215 215 216 219 220 221 222 223 223 225 223 218 217 217 219 219 218 218 218 222 228 230 231 232 233 232 231 230 229 230 234 238 241 243 242 241 241 242 246 252 255 258 263 264 268 273 275 282 287 290 289 288 292
215 215 215 215 218 220 216 215 215 215 215 214 213 211 212 213 210 209 213 215 214 215 217 218 221 223 223 223 223 221 213 207 213 221 216 213 214 215 217 220 220 221 223 223 225 226 226 224 220 220 224 224 223 222 223 227 231 232 233 235 235 233 230 230 229 231 236 240 243 246 248 250 251 252 252 252 253 259 262 263 265 269 275 281 287 288 284 286
214 213 213 213 215 218 215 214 214 213 215 213 213 211 211 213 212 209 211 214 215 215 215 216 221 224 223 225 226 227 220 205 206 217 215 211 212 214 216 219 219 219 221 222 223 226 228 229 226 224 227 230 229 228 228 229 231 232 233 237 239 237 235 233 232 232 236 240 243 246 249 253 255 255 254 252 250 253 258 260 262 266 272 278 281 283 282 280
213 211 211 211 212 215 214 212 211 211 213 212 212 211 210 212 212 210 210 212 214 214 214 213 217 224 224 224 226 228 223 211 205 208 209 208 207 211 214 217 219 219 219 221 223 226 228 229 230 230 231 234 233 231 231 231 233 233 235 239 241 241 239 237 236 235 238 242 245 247 250 253 254 254 252 250 250 251 254 258 261 264 268 271 273 276 277 275
212 209 209 210 210 213 213 211 210 210 210 211 211 209 209 210 211 211 210 211 213 213 214 212 211 219 222 222 226 229 226 219 214 203 194 201 203 205 209 212 215 217 218 220 223 226 229 229 229 230 231 232 232 232 233 233 234 234 235 239 240 240 240 239 239 238 239 243 247 249 251 252 251 251 250 249 252 254 256 258 260 261 262 262 265 269 271 273
210 207 208 209 208 211 212 209 210 210 208 210 212 209 208 208 209 211 211 212 213 213 213 211 207 213 219 220 226 230 229 226 221 212 195 189 197 203 206 208 209 210 213 216 221 223 226 227 226 227 229 231 231 232 234 234 235 235 234 235 237 238 238 238 238 239 240 244 247 251 253 249 244 247 251 251 253 256 258 259 260 260 260 259 261 264 265 267
208 206 206 208 207 208 210 208 208 209 208 210 211 208 208 208 207 210 211 212 214 214 214 212 208 211 217 221 225 228 230 229 226 223 214 193 190 199 204 208 205 202 204 208 215 220 222 223 221 222 225 228 230 232 235 235 235 234 232 233 235 236 236 235 235 238 239 243 247 250 255 249 238 244 253 254 253 255 258 259 260 261 261 259 261 263 262 262
207 205 205 206 206 206 208 207 207 208 208 210 210 207 205 204 204 206 209 211 213 214 214 212 211 210 215 221 224 226 230 231 227 227 224 214 203 200 203 208 205 197 199 201 208 214 217 219 220 221 223 225 229 232 234 236 237 234 231 231 231 233 236 232 231 237 238 241 245 248 255 251 238 243 252 254 255 255 257 259 261 262 261 260 261 262 260 259
206 203 203 205 205 205 207 206 205 206 209 210 207 204 201 199 200 202 204 206 208 209 208 209 209 209 212 219 222 225 230 230 226 229 230 226 222 216 204 206 206 199 197 200 204 209 212 215 218 219 220 222 225 229 230 232 234 232 228 227 228 230 235 234 231 236 238 241 245 246 253 253 245 247 254 256 256 254 256 257 258 259 259 260 261 260 258 257
203 201 201 203 203 204 205 205 205 205 207 207 205 201 198 195 195 198 199 200 201 200 198 200 204 205 210 217 219 222 228 228 223 225 232 232 231 229 217 208 209 203 198 200 202 206 208 211 215 216 218 219 220 223 224 226 229 228 226 227 228 228 231 235 233 234 237 241 246 245 250 253 250 253 258 260 260 256 256 257 257 257 258 258 259 258 257 255
202 199 199 200 202 203 204 205 205 205 206 206 205 200 195 195 194 195 196 195 195 194 192 195 198 202 208 214 215 217 223 222 220 222 227 232 235 235 229 219 213 205 198 197 199 204 207 208 214 215 216 217 216 218 217 220 223 223 223 224 228 229 229 233 235 235 235 240 245 248 250 251 250 254 259 263 265 263 261 262 262 260 258 257 256 255 254 254
201 198 197 197 200 202 203 205 205 205 207 206 205 198 192 195 194 192 193 192 190 188 188 191 191 197 207 213 216 219 221 219 217 220 224 227 232 238 235 228 221 208 199 197 196 201 206 208 212 215 214 214 214 214 214 218 222 221 221 221 225 230 230 233 237 237 237 240 244 248 252 252 250 253 259 263 267 268 267 268 265 259 256 256 256 254 253 252
202 198 196 196 198 199 201 204 204 204 204 203 202 195 189 193 193 192 192 189 187 186 189 191 190 197 209 214 218 221 219 215 212 215 221 223 225 233 235 232 230 221 207 201 199 199 203 205 208 212 213 212 213 216 218 223 228 229 230 231 233 235 236 237 237 237 239 243 246 248 254 255 253 254 257 260 265 267 266 263 259 255 253 255 257 258 256 254
201 197 195 196 196 198 201 203 204 203 202 199 196 191 188 188 187 186 188 189 193 195 197 200 199 203 212 214 216 217 213 209 207 209 212 217 222 224 226 229 231 230 220 206 204 202 200 202 207 212 214 215 217 220 223 229 233 236 238 239 239 239 241 241 238 238 240 246 251 253 257 257 253 253 253 255 260 261 258 255 254 255 255 256 258 261 263 261
199 194 194 196 195 198 201 202 203 203 201 198 194 192 189 189 188 187 188 190 195 201 203 205 205 207 213 214 216 216 209 203 202 205 207 211 218 217 217 220 224 230 227 215 210 206 202 204 209 214 217 219 221 222 225 230 233 236 238 239 240 240 243 244 242 239 240 247 253 255 260 258 252 249 249 254 258 254 251 252 253 256 259 259 259 260 263 264
197 191 192 195 194 197 200 199 200 201 200 197 195 195 194 195 196 197 196 193 193 198 202 203 204 208 214 217 218 217 213 207 202 202 203 206 210 210 213 214 218 229 230 224 220 211 209 211 212 216 219 221 222 223 225 229 231 234 236 239 240 241 242 242 238 236 237 245 253 256 260 259 253 248 247 251 255 249 245 250 252 255 261 262 260 259 261 263
198 191 189 192 193 193 196 196 195 197 198 195 195 196 196 197 199 200 201 198 194 196 200 201 202 206 211 216 219 218 217 214 209 207 203 202 206 208 210 212 215 222 225 227 227 219 212 215 214 217 220 222 223 222 223 227 229 232 236 240 240 239 236 230 228 230 235 244 254 259 265 264 257 251 247 246 250 246 241 247 250 253 259 261 260 259 260 261
197 191 188 190 192 189 190 191 190 194 197 196 196 196 196 198 199 198 199 199 197 198 200 200 203 207 209 212 216 217 217 215 213 212 207 204 206 208 212 214 215 215 218 227 230 227 220 213 215 219 222 224 224 224 224 224 228 233 239 241 242 238 230 225 226 232 240 247 255 264 273 270 261 254 251 246 247 247 242 244 247 249 255 259 260 259 260 263
194 189 188 188 189 186 185 188 189 192 194 195 196 195 194 197 199 199 197 196 198 201 202 203 205 208 211 212 214 216 217 215 214 213 211 209 209 211 213 212 214 218 221 224 227 230 227 216 213 220 224 224 225 227 225 224 229 234 238 240 240 239 232 229 230 237 249 253 256 261 273 274 266 258 255 252 250 248 245 246 246 246 252 256 259 262 263 264
192 187 187 186 185 184 184 186 188 191 191 193 195 194 195 198 198 199 197 195 200 202 202 204 208 210 211 212 210 209 213 216 215 214 215 212 211 214 213 209 212 219 225 220 217 229 231 227 227 228 226 225 227 230 228 227 230 233 238 239 238 238 234 233 236 240 249 254 258 257 252 271 275 265 258 256 255 251 247 247 247 246 249 253 258 264 266 264
189 185 186 186 185 185 185 186 187 191 191 191 193 194 196 198 199 199 194 191 209 208 204 204 208 210 211 212 207 202 205 214 212 210 212 210 210 215 213 209 211 216 219 210 206 225 234 232 233 233 229 224 225 228 228 227 228 235 241 240 237 238 235 237 243 244 247 253 260 260 255 267 273 268 262 259 259 256 250 248 248 248 249 252 255 260 264 262
187 183 184 185 186 188 189 187 187 190 192 192 192 195 196 197 200 196 188 165 196 204 207 206 205 208 211 212 209 203 202 210 210 207 206 205 209 215 216 214 216 219 216 206 210 226 233 231 231 229 224 222 224 226 228 227 230 236 241 241 239 238 238 241 243 242 247 256 260 256 254 261 269 269 268 265 263 259 254 251 250 251 251 251 250 253 258 258
186 183 183 183 186 189 190 190 190 190 191 192 193 194 193 196 197 189 183 181 182 191 205 207 204 206 208 210 211 207 205 208 209 206 204 202 205 212 217 218 219 221 218 215 222 229 230 231 233 228 220 220 226 229 229 230 234 237 238 241 241 237 240 241 239 240 243 249 255 253 248 247 269 270 268 267 265 261 258 256 256 256 257 254 250 249 252 253
187 185 184 184 186 187 188 191 194 194 191 191 193 192 190 191 186 177 177 198 186 186 195 200 204 207 207 207 209 210 209 210 208 203 203 204 204 208 215 219 219 219 218 221 228 231 233 232 229 227 225 227 235 237 232 230 233 236 235 238 240 236 236 236 233 236 237 241 248 251 246 240 266 275 268 264 263 264 264 262 261 262 262 262 257 252 251 252
186 186 185 185 188 187 186 189 194 195 194 192 191 187 183 180 176 173 179 187 186 190 190 194 202 207 209 208 207 209 209 212 211 205 202 202 204 207 209 212 214 214 215 219 224 228 232 232 225 229 234 234 237 238 237 233 230 230 227 227 229 224 226 229 229 228 218 247 247 249 247 236 240 259 264 266 265 266 268 267 268 268 268 269 266 259 254 253
186 185 184 184 187 187 187 188 190 193 193 192 190 183 175 170 175 183 180 182 191 196 190 191 198 205 212 211 211 213 210 211 214 213 209 203 205 209 208 208 206 204 203 211 220 223 226 230 230 231 231 227 229 230 232 235 229 225 220 215 211 198 212 215 219 226 224 241 246 250 241 228 240 252 256 262 265 268 271 273 275 273 272 270 266 259 254 253
187 186 184 184 184 185 188 189 189 190 189 190 190 183 174 168 181 185 180 186 193 193 195 198 202 206 212 210 212 215 212 214 216 216 216 213 210 213 213 213 211 207 202 207 214 216 220 229 228 227 225 223 224 223 222 227 227 224 219 209 200 188 193 208 206 229 236 240 246 247 230 226 249 260 263 263 265 270 273 275 277 275 274 270 261 254 252 251
186 185 183 183 182 182 186 188 189 189 186 187 186 180 175 176 189 185 185 191 184 182 197 201 202 206 210 210 213 214 211 214 218 217 217 216 215 215 215 216 215 212 209 207 208 207 211 222 221 221 223 221 222 226 230 233 229 225 221 214 208 202 194 205 205 207 229 242 245 228 211 226 248 256 266 269 268 270 273 276 275 274 273 265 257 252 252 255
184 182 180 180 180 181 182 182 186 186 183 183 180 177 178 181 188 188 190 191 182 178 194 200 203 202 205 210 213 215 213 212 215 217 217 216 215 217 216 216 216 214 212 210 210 209 210 218 222 223 226 225 223 226 229 228 224 226 221 215 218 218 214 220 227 227 232 246 243 216 212 237 247 252 256 261 265 266 268 269 262 261 262 257 260 267 271 273
180 180 180 181 179 181 181 179 181 183 182 181 178 179 185 187 191 194 194 193 191 189 187 192 202 199 197 205 208 211 214 214 214 213 216 220 219 219 219 218 217 215 214 215 217 215 213 221 227 225 225 227 227 228 228 223 222 222 214 214 225 225 219 221 236 234 221 238 249 233 239 250 255 259 257 253 257 260 261 261 255 255 260 262 265 271 276 277
179 180 182 183 180 180 183 181 180 182 184 184 181 185 190 192 197 199 197 196 195 196 187 183 194 197 195 200 204 207 209 211 215 212 212 218 221 222 222 221 220 218 217 217 219 222 221 225 228 224 224 227 228 230 232 229 226 220 215 223 228 222 216 218 225 173 166 238 256 236 247 253 254 263 262 256 257 258 260 263 262 260 259 261 263 264 266 268
179 180 183 184 181 180 183 182 182 182 184 186 187 191 194 194 197 199 200 198 196 199 194 184 191 199 197 198 203 207 205 205 211 211 210 214 221 225 223 222 222 221 220 218 219 224 226 231 234 229 229 230 227 226 225 224 223 221 226 231 222 210 211 211 207 203 196 219 268 238 245 250 246 252 259 259 260 261 263 265 261 257 256 260 265 264 264 266
178 179 183 184 181 182 184 183 184 184 183 187 191 195 197 196 198 201 202 201 199 202 201 193 194 200 202 204 205 205 204 206 208 208 209 212 218 226 226 223 222 222 221 218 219 223 224 228 235 232 232 230 222 217 217 219 219 220 226 228 219 215 214 208 208 214 209 208 260 248 243 249 252 255 258 261 262 262 261 254 243 246 257 265 272 272 266 259
180 179 182 184 183 184 185 184 187 186 184 190 194 197 201 201 201 203 204 203 203 204 206 203 201 201 204 208 210 207 205 208 209 208 210 213 218 225 228 226 224 223 222 221 222 224 223 225 232 231 226 219 212 212 218 221 217 214 217 217 216 216 212 214 219 218 216 216 244 258 254 253 257 261 263 264 265 264 257 246 241 250 260 264 267 268 259 245
180 180 183 185 185 186 184 184 190 191 190 194 196 198 202 203 203 203 204 205 207 209 211 211 210 210 209 208 211 210 207 207 209 209 211 214 217 224 228 227 226 225 223 221 222 223 223 226 230 227 215 211 217 225 230 229 222 218 217 216 216 213 205 208 219 216 219 224 223 227 261 260 261 265 266 265 268 268 262 254 254 257 256 257 259 258 254 251
180 183 185 186 186 186 185 185 190 194 196 200 200 200 204 206 206 206 205 206 209 212 214 214 214 216 217 216 215 213 210 209 209 210 213 217 221 225 229 228 228 227 225 223 224 225 224 226 228 229 224 222 228 232 231 229 226 225 223 219 218 213 204 204 209 211 216 223 231 237 262 264 262 263 266 266 265 265 265 261 261 261 252 247 248 250 256 259
184 187 187 187 189 188 185 186 191 195 199 203 204 205 207 208 208 209 209 208 210 212 214 215 216 216 219 221 220 216 214 214 214 215 216 220 225 230 232 231 230 229 225 223 225 224 223 224 227 231 234 234 233 229 224 222 221 222 222 219 217 214 210 213 217 216 213 215 224 231 252 259 261 263 264 266 265 264 264 261 261 261 252 244 243 248 256 263
187 187 185 186 191 190 187 188 192 195 199 202 203 205 208 210 211 211 211 210 211 214 216 216 218 220 221 222 221 220 219 218 219 221 221 223 229 234 233 232 232 229 226 224 223 222 220 220 222 225 234 236 232 227 222 217 213 215 220 219 218 218 215 215 217 221 223 219 220 217 232 254 261 265 262 262 263 262 263 260 256 252 247 245 248 250 253 260
186 185 183 185 192 194 192 192 194 197 200 201 203 207 209 211 213 214 214 214 214 217 219 219 221 223 223 223 223 223 224 224 223 224 225 227 233 237 234 230 230 230 231 231 227 223 221 219 219 218 215 217 219 222 225 221 214 212 217 217 217 217 215 214 216 217 223 225 221 217 230 248 256 260 259 260 259 257 259 257 246 238 242 253 256 253 252 257
185 183 180 181 189 197 198 196 197 200 203 202 202 208 211 212 215 216 217 218 218 219 221 222 223 222 223 224 224 224 225 227 228 229 230 230 233 237 237 233 229 228 231 231 227 224 224 223 222 222 223 226 226 227 230 228 220 214 215 217 217 218 218 217 215 215 220 226 225 223 231 244 251 254 255 256 256 255 255 247 235 237 252 265 262 255 253 256
189 186 180 177 181 194 199 199 200 202 206 205 204 208 211 213 214 215 216 219 220 221 222 223 223 221 222 223 223 223 225 226 226 228 232 235 236 237 238 235 230 228 229 229 225 223 224 226 227 227 229 230 231 233 236 234 228 222 220 220 219 219 218 216 215 219 222 223 229 232 232 239 249 252 251 251 252 255 253 244 242 252 262 263 259 254 252 254
192 191 186 181 181 190 198 200 201 204 208 208 208 210 210 211 212 213 213 216 219 221 221 221 224 225 225 227 225 223 223 222 223 226 228 232 234 234 233 233 230 228 227 225 222 220 220 225 228 230 233 234 234 236 240 241 237 230 226 224 222 220 218 216 218 222 223 220 229 236 233 236 247 253 253 252 252 253 255 255 256 260 252 238 244 254 255 254
197 196 193 190 189 195 201 202 201 204 207 208 208 210 210 210 212 214 216 216 217 221 222 222 226 228 228 229 229 225 222 219 220 224 226 227 230 230 228 228 228 226 225 224 224 221 221 224 225 226 232 236 235 236 240 242 241 236 231 228 225 224 222 220 221 223 224 224 230 237 239 240 248 255 257 256 255 253 255 258 256 250 236 227 242 258 259 254
200 200 198 196 196 199 204 204 201 203 206 207 209 212 212 211 211 213 216 218 217 219 221 223 226 228 227 228 229 227 225 224 223 224 225 224 226 228 226 226 227 223 221 223 225 225 225 228 229 227 231 236 235 235 236 236 236 238 238 235 231 230 229 226 225 225 226 227 230 236 240 242 249 257 256 255 256 253 251 251 246 239 231 233 246 258 263 262
201 203 200 198 197 197 201 202 201 203 205 206 208 211 212 212 211 211 213 217 220 219 219 220 222 224 223 225 226 224 223 225 225 227 227 226 226 227 226 226 227 223 218 219 223 224 225 229 232 231 233 239 239 238 237 237 239 242 243 242 240 240 239 233 228 227 227 228 230 232 236 243 252 256 253 251 253 253 251 248 243 239 239 245 252 257 264 268
195 199 199 198 195 192 194 197 198 199 200 202 204 207 208 210 211 211 210 213 217 217 215 214 212 211 213 217 219 220 222 222 222 224 225 223 224 226 224 223 226 225 220 218 220 222 224 226 228 226 227 236 240 241 242 242 242 242 243 246 247 247 248 243 235 230 229 228 229 232 237 247 253 254 253 253 253 253 252 250 248 248 251 255 257 257 261 267
Height
3019 3022 3026 3029 3033 3037 3041 3046 3050 3054 3059 3063 3067 3071 3075 3079 3084 3088 3092 3096 3100 3104 3107 3111 3114 3116 3119 3122 3124 3127 3130 3132 3135 3137 3141 3147 3149 3149 3150 3152 3154 3155 3157 3159 3161 3163 3165 3166 3167 3169 3170 3172 3174 3175 3176 3178 3179 3180 3180 3181 3182 3183 3184 3185 3185 3185 3186 3186 3187 3187 3188 3189 3189 3189 3189 3189 3189 3189 3189 3189 3189 3189 3189 3189 3189 3189 3189 3189
3014 3018 3022 3026 3029 3033 3037 3042 3046 3050 3055 3060 3064 3068 3072 3076 3080 3085 3089 3092 3096 3100 3104 3108 3112 3114 3117 3119 3121 3124 3126 3129 3132 3134 3141 3146 3146 3147 3149 3150 3152 3153 3155 3157 3160 3162 3163 3165 3166 3167 3168 3170 3172 3173 3175 3176 3177 3178 3179 3179 3180 3182 3184 3184 3184 3184 3185 3186 3186 3186 3187 3188 3189 3188 3188 3188 3188 3189 3189 3188 3188 3189 3189 3189 3189 3189 3189 3189
3010 3013 3018 3022 3025 3029 3033 3037 3042 3046 3051 3056 3060 3064 3068 3072 3076 3081 3085 3089 3092 3097 3100 3104 3109 3111 3114 3117 3118 3121 3123 3127 3127 3131 3140 3143 3144 3147 3148 3149 3151 3152 3154 3156 3158 3160 3162 3164 3165 3166 3167 3168 3170 3172 3173 3175 3176 3176 3177 3177 3179 3182 3183 3183 3183 3183 3184 3185 3185 3186 3187 3188 3188 3188 3187 3187 3188 3188 3188 3188 3188 3188 3188 3188 3188 3188 3188 3188
3006 3009 3013 3018 3021 3025 3030 3034 3038 3042 3047 3052 3056 3060 3065 3069 3073 3078 3082 3086 3089 3093 3097 3100 3105 3108 3111 3114 3116 3118 3122 3123 3123 3130 3139 3140 3142 3144 3145 3147 3149 3150 3152 3154 3156 3158 3160 3161 3162 3164 3165 3166 3168 3170 3171 3173 3174 3175 3175 3176 3178 3181 3182 3183 3183 3183 3183 3184 3184 3185 3186 3187 3187 3187 3187 3187 3187 3187 3188 3188 3187 3187 3187 3188 3188 3188 3188 3188
3002 3005 3009 3013 3018 3022 3026 3030 3034 3038 3043 3048 3053 3057 3062 3066 3070 3074 3078 3083 3086 3090 3094 3097 3101 3104 3109 3112 3114 3116 3119 3120 3119 3129 3135 3135 3138 3141 3141 3145 3147 3148 3150 3151 3153 3155 3157 3158 3160 3162 3163 3164 3166 3168 3169 3171 3172 3173 3174 3175 3177 3179 3180 3181 3182 3182 3182 3182 3183 3184 3185 3186 3186 3186 3185 3185 3186 3186 3187 3187 3187 3187 3187 3187 3187 3187 3187 3187
2998 3000 3004 3009 3014 3018 3023 3027 3031 3035 3039 3044 3049 3054 3058 3063 3067 3071 3075 3080 3084 3087 3090 3094 3097 3100 3105 3109 3111 3111 3113 3115 3117 3125 3130 3131 3135 3137 3139 3142 3144 3146 3147 3149 3151 3153 3155 3157 3158 3159 3161 3162 3164 3166 3168 3169 3170 3171 3172 3174 3176 3177 3178 3179 3180 3180 3181 3181 3182 3183 3183 3184 3184 3184 3184 3184 3185 3185 3185 3186 3186 3186 3186 3186 3186 3186 3186 3186
2994 2997 3000 3005 3010 3015 3019 3024 3028 3031 3035 3040 3045 3050 3054 3059 3064 3068 3072 3076 3080 3084 3087 3091 3094 3097 3101 3105 3108 3108 3108 3112 3115 3121 3126 3128 3132 3135 3136 3139 3141 3143 3145 3147 3149 3151 3153 3155 3157 3158 3160 3161 3162 3165 3167 3168 3169 3170 3171 3172 3174 3175 3176 3177 3178 3178 3179 3179 3180 3181 3182 3182 3183 3183 3182 3182 3184 3184 3184 3185 3185 3185 3185 3185 3185 3186 3186 3185
2989 2992 2996 3001 3006 3011 3016 3020 3025 3028 3032 3036 3041 3046 3051 3055 3060 3065 3069 3073 3077 3081 3085 3088 3091 3094 3098 3101 3104 3105 3106 3110 3115 3118 3122 3126 3129 3131 3133 3135 3138 3140 3143 3146 3148 3150 3152 3153 3155 3157 3159 3160 3161 3163 3165 3166 3167 3168 3170 3171 3172 3173 3175 3175 3176 3176 3177 3177 3178 3179 3180 3180 3181 3181 3180 3181 3183 3183 3183 3183 3183 3183 3183 3184 3184 3184 3184 3185
2985 2989 2993 2997 3002 3007 3012 3017 3021 3026 3029 3034 3038 3042 3047 3052 3056 3061 3066 3070 3074 3078 3082 3087 3090 3092 3095 3097 3101 3102 3105 3111 3114 3115 3119 3123 3126 3128 3130 3133 3136 3138 3141 3144 3146 3148 3150 3152 3154 3156 3158 3160 3161 3162 3163 3164 3165 3166 3168 3169 3170 3171 3173 3173 3174 3175 3175 3175 3176 3177 3178 3178 3179 3178 3177 3179 3182 3181 3181 3182 3182 3182 3182 3182 3183 3183 3183 3183
2980 2985 2989 2993 2998 3003 3008 3013 3018 3023 3027 3031 3035 3039 3044 3049 3054 3058 3063 3067 3071 3075 3079 3084 3088 3090 3092 3094 3096 3098 3104 3111 3112 3113 3117 3119 3122 3125 3127 3131 3134 3137 3140 3142 3144 3146 3148 3151 3153 3156 3158 3159 3160 3160 3161 3162 3163 3166 3167 3168 3168 3169 3170 3171 3172 3172 3173 3173 3174 3175 3175 3176 3177 3175 3173 3176 3179 3179 3180 3180 3180 3180 3181 3181 3181 3181 3181 3182
2976 2981 2985 2989 2994 2999 3005 3010 3015 3020 3025 3029 3032 3035 3040 3046 3051 3055 3060 3064 3068 3073 3076 3081 3086 3088 3089 3091 3092 3095 3102 3108 3109 3112 3114 3116 3119 3121 3124 3128 3131 3135 3138 3140 3143 3145 3148 3150 3152 3154 3155 3156 3157 3158 3159 3160 3162 3164 3165 3165 3166 3167 3167 3167 3169 3170 3171 3171 3171 3172 3172 3172 3173 3170 3170 3175 3177 3177 3178 3178 3178 3178 3179 3180 3180 3180 3180 3180
2972 2977 2981 2985 2990 2996 3001 3007 3012 3017 3022 3026 3029 3033 3037 3042 3048 3052 3057 3061 3066 3070 3074 3078 3083 3086 3087 3088 3090 3094 3099 3103 3106 3109 3110 3112 3115 3118 3122 3125 3127 3131 3136 3139 3141 3143 3145 3147 3149 3151 3152 3153 3155 3157 3157 3158 3160 3162 3162 3163 3163 3164 3164 3164 3166 3167 3168 3169 3169 3170 3169 3167 3168 3167 3168 3174 3175 3176 3176 3175 3176 3176 3177 3178 3178 3178 3178 3179
2967 2973 2977 2981 2986 2992 2998 3003 3009 3014 3018 3023 3026 3031 3035 3040 3045 3050 3054 3059 3062 3067 3071 3076 3081 3084 3084 3085 3088 3092 3095 3098 3103 3106 3108 3110 3112 3116 3120 3122 3124 3128 3132 3136 3138 3140 3142 3144 3146 3148 3149 3151 3153 3154 3154 3156 3158 3159 3160 3160 3161 3161 3159 3161 3164 3164 3166 3167 3167 3168 3165 3162 3165 3167 3168 3172 3173 3173 3173 3173 3174 3174 3175 3175 3176 3176 3176 3177
2963 2969 2973 2977 2982 2988 2994 3000 3005 3011 3015 3019 3024 3029 3033 3038 3042 3047 3052 3056 3060 3064 3069 3073 3078 3081 3081 3082 3085 3089 3091 3094 3099 3103 3105 3107 3110 3114 3117 3120 3122 3125 3128 3132 3134 3137 3140 3142 3144 3145 3147 3149 3150 3152 3153 3155 3156 3157 3157 3157 3157 3156 3156 3159 3162 3162 3164 3165 3165 3167 3162 3159 3163 3166 3167 3169 3170 3171 3170 3170 3171 3171 3172 3172 3173 3173 3174 3175
2958 2965 2969 2974 2979 2984 2990 2996 3002 3008 3012 3017 3023 3027 3031 3036 3040 3045 3049 3053 3057 3062 3067 3071 3074 3077 3078 3079 3082 3086 3088 3091 3096 3099 3102 3105 3107 3111 3114 3117 3120 3122 3125 3128 3131 3134 3137 3139 3141 3142 3144 3146 3148 3150 3151 3153 3153 3154 3154 3152 3152 3153 3154 3158 3160 3160 3162 3164 3164 3165 3160 3157 3160 3163 3165 3166 3167 3168 3167 3167 3169 3168 3169 3169 3170 3170 3171 3172
2954 2961 2965 2970 2975 2981 2986 2993 2999 3005 3010 3015 3021 3025 3029 3033 3037 3042 3046 3051 3055 3059 3064 3067 3070 3073 3075 3076 3080 3083 3084 3087 3093 3096 3098 3101 3104 3108 3113 3116 3118 3120 3122 3126 3129 3131 3134 3136 3139 3140 3142 3143 3145 3147 3149 3151 3150 3150 3149 3148 3149 3151 3153 3156 3158 3159 3162 3163 3161 3161 3158 3155 3157 3160 3162 3163 3164 3165 3165 3165 3166 3166 3166 3166 3167 3167 3168 3169
2951 2957 2962 2966 2971 2977 2983 2989 2995 3001 3007 3012 3018 3023 3028 3032 3036 3040 3044 3048 3052 3056 3061 3064 3068 3072 3073 3073 3076 3078 3080 3085 3090 3093 3094 3097 3100 3105 3110 3114 3115 3117 3119 3123 3126 3129 3131 3134 3136 3137 3139 3140 3143 3145 3147 3145 3143 3144 3145 3146 3148 3150 3153 3155 3156 3158 3161 3160 3158 3159 3156 3153 3155 3157 3159 3160 3161 3162 3162 3163 3163 3163 3163 3164 3164 3164 3164 3165
2947 2953 2958 2962 2968 2974 2979 2986 2992 2998 3004 3010 3016 3020 3026 3030 3034 3037 3041 3046 3050 3054 3058 3061 3066 3068 3068 3069 3072 3075 3080 3084 3089 3092 3092 3094 3098 3102 3106 3111 3113 3115 3118 3120 3123 3125 3128 3131 3133 3135 3136 3137 3139 3140 3139 3137 3137 3141 3143 3144 3147 3149 3151 3153 3154 3157 3159 3158 3156 3156 3153 3150 3153 3155 3157 3158 3159 3159 3160 3160 3160 3160 3160 3160 3160 3160 3161 3162
2943 2949 2955 2959 2964 2970 2976 2982 2988 2994 3000 3006 3012 3017 3024 3029 3032 3035 3038 3042 3044 3047 3050 3054 3059 3061 3063 3067 3071 3075 3080 3084 3087 3090 3091 3092 3096 3098 3101 3107 3111 3114 3116 3118 3120 3122 3125 3128 3130 3130 3130 3131 3132 3133 3135 3136 3139 3142 3144 3145 3146 3148 3149 3151 3153 3156 3157 3156 3153 3152 3152 3150 3150 3153 3155 3156 3157 3156 3156 3157 3156 3157 3157 3157 3158 3158 3158 3159
2939 2945 2952 2955 2961 2967 2973 2979 2984 2990 2996 3001 3007 3012 3017 3021 3024 3029 3034 3038 3041 3044 3048 3052 3056 3060 3062 3065 3069 3073 3077 3081 3083 3086 3088 3090 3092 3096 3098 3102 3108 3111 3114 3116 3118 3120 3123 3124 3124 3123 3124 3127 3130 3134 3137 3139 3141 3144 3146 3146 3146 3146 3147 3150 3153 3155 3155 3153 3150 3150 3150 3148 3147 3149 3152 3153 3153 3153 3153 3153 3153 3154 3155 3155 3155 3155 3156 3157
2935 2942 2948 2952 2958 2964 2969 2975 2981 2986 2992 2998 3003 3006 3008 3011 3015 3020 3027 3035 3041 3045 3049 3053 3057 3059 3060 3063 3067 3070 3072 3076 3080 3083 3086 3089 3091 3094 3095 3098 3103 3107 3111 3115 3116 3118 3120 3120 3119 3121 3124 3128 3132 3135 3138 3139 3141 3143 3144 3144 3145 3145 3146 3149 3152 3153 3153 3150 3147 3148 3147 3145 3145 3146 3149 3149 3148 3149 3150 3150 3150 3151 3152 3152 3152 3153 3153 3154
2933 2938 2944 2950 2955 2960 2966 2971 2977 2983 2989 2996 3000 3003 3007 3012 3016 3021 3026 3030 3036 3041 3045 3049 3053 3056 3058 3061 3064 3067 3071 3074 3078 3081 3084 3087 3089 3091 3092 3095 3098 3102 3108 3112 3114 3116 3117 3116 3118 3122 3126 3128 3131 3134 3137 3138 3140 3141 3142 3143 3142 3143 3145 3148 3149 3150 3150 3147 3145 3146 3144 3142 3143 3143 3144 3145 3145 3147 3148 3147 3148 3148 3148 3149 3150 3150 3150 3151
2930 2935 2941 2947 2952 2957 2963 2968 2975 2981 2986 2991 2997 3002 3008 3013 3019 3024 3027 3030 3033 3037 3041 3045 3049 3052 3055 3058 3061 3065 3069 3072 3076 3079 3082 3085 3087 3089 3090 3093 3096 3100 3104 3107 3110 3113 3113 3114 3118 3123 3125 3126 3129 3132 3135 3136 3138 3139 3139 3140 3139 3141 3144 3145 3147 3148 3148 3146 3144 3144 3141 3138 3140 3139 3139 3142 3143 3144 3145 3144 3145 3145 3145 3146 3147 3148 3147 3148
2928 2934 2939 2945 2950 2955 2960 2966 2973 2977 2983 2990 2996 3001 3007 3012 3016 3021 3026 3030 3033 3036 3039 3043 3047 3049 3051 3054 3059 3063 3066 3070 3074 3076 3080 3083 3085 3087 3088 3092 3095 3097 3099 3102 3107 3111 3112 3113 3118 3122 3123 3124 3128 3131 3133 3134 3135 3136 3137 3137 3138 3140 3143 3144 3146 3147 3146 3145 3143 3143 3139 3132 3134 3136 3135 3140 3141 3139 3141 3142 3141 3142 3143 3143 3143 3144 3145 3145
2926 2932 2937 2942 2948 2952 2958 2964 2969 2974 2982 2989 2993 2999 3005 3010 3015 3020 3024 3029 3032 3035 3038 3041 3044 3046 3049 3054 3057 3060 3065 3069 3071 3074 3078 3081 3084 3085 3087 3091 3094 3095 3096 3100 3106 3109 3111 3113 3117 3120 3121 3123 3127 3128 3130 3132 3132 3134 3134 3135 3137 3140 3142 3143 3145 3145 3144 3143 3141 3144 3139 3126 3127 3133 3132 3136 3137 3136 3138 3138 3138 3140 3140 3140 3140 3141 3142 3143
2924 2930 2935 2940 2945 2950 2955 2961 2967 2973 2978 2984 2990 2997 3003 3008 3014 3019 3023 3028 3029 3030 3034 3038 3042 3044 3048 3051 3054 3060 3064 3065 3069 3074 3076 3080 3083 3084 3085 3088 3091 3093 3095 3100 3104 3105 3107 3112 3115 3117 3119 3122 3125 3126 3128 3130 3131 3130 3130 3133 3138 3139 3140 3141 3142 3143 3142 3140 3138 3142 3139 3127 3122 3127 3130 3132 3132 3132 3134 3134 3135 3137 3137 3137 3137 3138 3139 3140
2921 2927 2933 2938 2944 2947 2950 2956 2964 2969 2974 2980 2988 2995 3001 3007 3012 3016 3023 3029 3027 3026 3031 3035 3039 3042 3045 3048 3053 3058 3060 3061 3066 3070 3073 3078 3081 3082 3083 3085 3088 3091 3094 3099 3101 3098 3102 3108 3112 3115 3118 3120 3121 3122 3124 3127 3128 3126 3126 3132 3136 3136 3138 3139 3140 3141 3139 3138 3138 3138 3139 3131 3118 3117 3125 3129 3127 3128 3129 3130 3132 3133 3133 3134 3135 3135 3136 3136
2919 2925 2931 2936 2942 2946 2949 2954 2959 2965 2973 2980 2987 2993 2999 3004 3009 3015 3021 3026 3024 3023 3027 3031 3036 3040 3043 3047 3051 3054 3057 3060 3063 3065 3070 3075 3077 3079 3081 3082 3086 3088 3090 3094 3093 3093 3098 3103 3107 3110 3114 3116 3116 3117 3121 3125 3125 3123 3126 3131 3134 3135 3137 3137 3138 3139 3138 3138 3136 3134 3139 3133 3114 3110 3121 3124 3122 3122 3124 3127 3129 3129 3130 3131 3132 3132 3132 3133
2918 2923 2929 2936 2940 2945 2951 2956 2960 2965 2972 2980 2985 2991 2997 3002 3008 3014 3019 3022 3019 3019 3024 3028 3033 3037 3039 3044 3049 3052 3056 3058 3060 3063 3068 3071 3072 3076 3078 3080 3085 3087 3088 3091 3091 3093 3098 3101 3104 3106 3108 3110 3113 3117 3121 3123 3123 3123 3127 3130 3132 3135 3135 3136 3137 3137 3138 3136 3131 3131 3136 3132 3112 3104 3116 3119 3114 3116 3120 3124 3126 3126 3127 3128 3128 3129 3129 3130
2916 2921 2927 2933 2937 2942 2949 2957 2962 2966 2971 2978 2984 2990 2995 3000 3006 3011 3016 3017 3015 3018 3022 3024 3029 3031 3035 3040 3044 3049 3054 3055 3058 3062 3066 3067 3070 3074 3076 3079 3083 3085 3087 3090 3091 3094 3097 3100 3103 3103 3105 3109 3113 3117 3119 3121 3123 3125 3128 3129 3131 3133 3133 3134 3135 3135 3137 3130 3126 3126 3130 3132 3115 3099 3105 3111 3109 3113 3117 3120 3122 3123 3124 3124 3124 3125 3125 3126
2915 2920 2926 2931 2935 2940 2947 2953 2958 2965 2972 2977 2983 2989 2994 2999 3003 3006 3009 3012 3014 3016 3018 3021 3025 3028 3032 3036 3040 3044 3049 3052 3056 3059 3061 3065 3068 3070 3073 3076 3079 3083 3086 3088 3089 3092 3095 3096 3098 3100 3104 3108 3112 3114 3115 3118 3122 3124 3126 3126 3129 3131 3131 3132 3133 3133 3133 3124 3120 3121 3123 3129 3116 3095 3097 3106 3106 3111 3114 3116 3119 3120 3120 3121 3121 3121 3121 3121
2915 2920 2925 2931 2936 2941 2946 2950 2955 2963 2971 2976 2982 2986 2990 2997 3001 3002 3005 3009 3011 3012 3013 3017 3021 3025 3030 3034 3037 3041 3045 3047 3051 3055 3057 3061 3063 3064 3067 3069 3072 3077 3080 3082 3085 3089 3090 3091 3094 3097 3100 3104 3107 3110 3113 3116 3119 3122 3124 3124 3126 3129 3128 3129 3128 3128 3127 3120 3116 3117 3119 3119 3105 3091 3097 3103 3104 3108 3111 3113 3116 3115 3116 3117 3117 3117 3117 3117
2914 2919 2925 2930 2935 2940 2945 2951 2956 2961 2968 2975 2980 2984 2989 2992 2994 2998 3002 3005 3006 3007 3012 3016 3019 3023 3027 3030 3034 3038 3042 3045 3047 3051 3055 3059 3061 3061 3064 3066 3068 3071 3073 3076 3080 3084 3087 3088 3091 3093 3095 3098 3102 3104 3106 3108 3111 3114 3116 3117 3119 3122 3124 3124 3124 3125 3122 3116 3113 3115 3117 3111 3098 3091 3095 3098 3102 3106 3108 3110 3111 3111 3112 3112 3112 3113 3112 3113
2914 2919 2924 2929 2934 2939 2943 2950 2955 2961 2967 2972 2976 2982 2987 2989 2990 2995 2998 3000 3003 3006 3010 3014 3017 3021 3023 3025 3030 3033 3038 3042 3044 3047 3051 3055 3057 3058 3061 3064 3066 3070 3073 3074 3075 3078 3081 3082 3082 3084 3086 3089 3093 3095 3097 3099 3102 3105 3108 3112 3112 3113 3115 3115 3116 3117 3115 3112 3112 3113 3112 3103 3095 3092 3091 3095 3101 3105 3105 3107 3108 3107 3108 3108 3108 3108 3109 3109
2914 2919 2923 2928 2933 2938 2943 2948 2954 2961 2966 2969 2974 2978 2980 2983 2987 2991 2993 2997 3002 3004 3008 3012 3016 3018 3021 3025 3028 3030 3034 3038 3041 3045 3047 3049 3051 3053 3056 3059 3062 3067 3070 3072 3073 3074 3075 3074 3075 3079 3081 3084 3088 3091 3095 3099 3102 3103 3108 3111 3108 3107 3110 3111 3111 3111 3111 3112 3110 3107 3101 3094 3090 3089 3090 3094 3098 3101 3104 3105 3106 3106 3105 3105 3105 3105 3106 3106
2913 2918 2922 2926 2932 2938 2943 2947 2953 2960 2963 2967 2972 2974 2976 2979 2982 2984 2989 2994 2998 2999 3003 3009 3012 3014 3017 3022 3025 3028 3033 3036 3039 3042 3044 3047 3048 3049 3052 3055 3059 3063 3065 3068 3070 3071 3072 3072 3074 3078 3080 3082 3086 3089 3092 3095 3098 3100 3103 3103 3101 3104 3108 3110 3110 3108 3111 3111 3105 3100 3095 3091 3089 3084 3084 3092 3094 3098 3102 3102 3103 3104 3103 3103 3103 3103 3103 3103
2910 2915 2921 2926 2931 2937 2941 2946 2952 2958 2963 2966 2968 2970 2974 2978 2979 2982 2987 2990 2994 2996 2999 3002 3005 3008 3013 3017 3020 3024 3029 3033 3036 3039 3041 3044 3045 3045 3049 3053 3056 3059 3062 3066 3068 3068 3071 3071 3072 3075 3076 3079 3084 3088 3090 3091 3093 3095 3096 3096 3099 3104 3106 3107 3109 3108 3110 3109 3101 3096 3092 3090 3090 3080 3077 3087 3091 3094 3099 3099 3099 3100 3100 3100 3099 3100 3100 3099
2909 2915 2921 2925 2931 2936 2941 2945 2950 2956 2961 2965 2967 2969 2973 2976 2979 2982 2986 2988 2993 2995 2997 2999 3001 3005 3009 3011 3015 3019 3024 3028 3031 3033 3037 3039 3039 3040 3044 3049 3053 3057 3061 3066 3067 3067 3070 3071 3070 3072 3074 3077 3083 3087 3088 3087 3089 3090 3091 3094 3097 3099 3099 3102 3104 3103 3105 3104 3096 3090 3086 3085 3083 3075 3074 3083 3087 3090 3095 3096 3096 3095 3096 3096 3096 3096 3096 3096
2909 2914 2920 2925 2931 2936 2940 2944 2949 2954 2958 2961 2965 2968 2971 2975 2978 2982 2985 2988 2991 2993 2994 2997 3000 3004 3006 3008 3011 3015 3019 3022 3025 3028 3032 3033 3034 3036 3040 3044 3048 3052 3057 3062 3063 3064 3068 3069 3067 3069 3072 3075 3078 3080 3081 3081 3084 3087 3090 3092 3093 3093 3093 3094 3095 3095 3097 3098 3093 3087 3082 3076 3071 3069 3073 3079 3082 3087 3092 3093 3093 3092 3093 3093 3093 3093 3093 3093
2908 2913 2919 2924 2930 2935 2939 2944 2948 2951 2954 2958 2961 2965 2969 2973 2976 2980 2983 2987 2989 2990 2993 2995 2998 3000 3003 3007 3010 3012 3016 3019 3021 3025 3027 3029 3031 3033 3037 3041 3044 3049 3055 3058 3060 3062 3065 3065 3065 3066 3069 3069 3068 3069 3071 3072 3076 3079 3082 3083 3084 3088 3091 3092 3092 3092 3093 3093 3091 3088 3078 3066 3062 3067 3072 3076 3079 3083 3088 3089 3090 3090 3090 3090 3091 3091 3090 3090
2908 2913 2918 2923 2928 2933 2937 2942 2946 2950 2953 2957 2960 2964 2967 2971 2974 2978 2981 2985 2988 2989 2992 2994 2996 2998 3001 3004 3007 3010 3013 3016 3019 3022 3023 3026 3028 3029 3032 3038 3042 3046 3051 3054 3055 3058 3061 3061 3062 3063 3061 3061 3062 3064 3065 3066 3067 3070 3071 3071 3073 3077 3083 3086 3087 3087 3089 3088 3086 3085 3073 3057 3059 3066 3069 3073 3077 3079 3082 3085 3085 3087 3088 3088 3087 3088 3087 3087
2908 2912 2916 2922 2927 2931 2934 2939 2943 2948 2952 2954 2958 2962 2965 2968 2972 2976 2979 2982 2985 2988 2991 2993 2995 2997 3000 3002 3005 3008 3010 3013 3016 3018 3019 3021 3023 3025 3030 3035 3038 3042 3045 3048 3050 3053 3057 3058 3057 3057 3056 3057 3061 3062 3063 3064 3067 3068 3068 3068 3070 3073 3076 3078 3079 3080 3083 3082 3081 3083 3072 3054 3056 3065 3065 3068 3073 3075 3078 3080 3080 3083 3084 3084 3084 3084 3083 3083
2907 2911 2917 2922 2926 2929 2933 2937 2942 2946 2949 2953 2957 2960 2962 2966 2969 2973 2977 2980 2983 2985 2988 2990 2993 2995 2998 3000 3003 3005 3008 3011 3012 3014 3016 3018 3019 3023 3028 3032 3035 3038 3041 3044 3046 3051 3055 3054 3054 3055 3055 3056 3058 3058 3058 3061 3064 3064 3064 3065 3067 3069 3070 3071 3073 3074 3076 3075 3076 3080 3071 3054 3053 3061 3061 3063 3067 3070 3072 3075 3076 3079 3080 3082 3082 3081 3080 3080
2906 2912 2918 2922 2926 2929 2931 2933 2937 2942 2946 2951 2955 2958 2960 2964 2967 2970 2973 2976 2979 2981 2984 2987 2989 2992 2995 2998 3000 3002 3005 3007 3009 3011 3014 3015 3017 3022 3026 3028 3032 3033 3035 3038 3041 3045 3047 3047 3049 3052 3052 3052 3053 3054 3053 3055 3057 3055 3056 3059 3061 3064 3068 3070 3072 3074 3072 3069 3072 3074 3067 3053 3050 3056 3058 3058 3062 3063 3066 3070 3073 3075 3077 3079 3080 3079 3079 3079
2904 2911 2917 2920 2924 2928 2930 2932 2935 2939 2942 2946 2951 2954 2957 2960 2963 2966 2970 2973 2976 2978 2981 2984 2987 2989 2992 2995 2998 3000 3002 3004 3006 3008 3011 3013 3015 3018 3021 3024 3027 3028 3030 3034 3037 3039 3040 3040 3041 3042 3041 3040 3040 3041 3043 3046 3048 3047 3049 3053 3056 3059 3062 3063 3066 3067 3063 3063 3065 3063 3057 3049 3047 3051 3053 3054 3057 3058 3061 3066 3069 3071 3074 3076 3077 3077 3077 3077
2902 2908 2913 2916 2921 2926 2928 2932 2936 2938 2940 2944 2947 2950 2953 2956 2959 2963 2968 2971 2973 2976 2979 2981 2984 2987 2990 2992 2995 2998 2999 3002 3005 3006 3007 3009 3011 3013 3016 3018 3021 3023 3026 3031 3033 3035 3036 3035 3034 3034 3033 3032 3032 3034 3037 3039 3041 3042 3044 3047 3049 3051 3052 3055 3057 3055 3054 3057 3055 3052 3051 3048 3045 3047 3048 3048 3052 3055 3058 3063 3066 3068 3071 3073 3074 3074 3074 3075
2902 2906 2909 2911 2916 2922 2926 2931 2935 2937 2939 2941 2943 2946 2949 2952 2956 2960 2964 2967 2970 2973 2975 2978 2980 2982 2985 2988 2991 2993 2995 2998 3000 3001 3003 3005 3007 3010 3011 3013 3016 3019 3023 3027 3027 3029 3029 3027 3028 3030 3028 3028 3032 3035 3035 3035 3036 3038 3040 3040 3041 3044 3047 3050 3049 3047 3050 3053 3047 3046 3051 3047 3040 3041 3044 3045 3048 3051 3054 3059 3062 3064 3067 3069 3070 3071 3071 3072
2901 2905 2908 2909 2911 2914 2919 2923 2928 2933 2936 2939 2941 2943 2945 2949 2952 2955 2959 2962 2965 2968 2971 2973 2974 2977 2980 2983 2986 2989 2991 2994 2996 2997 2999 3001 3004 3006 3007 3009 3012 3015 3019 3020 3020 3021 3021 3019 3022 3025 3023 3025 3029 3030 3031 3032 3033 3033 3034 3035 3037 3040 3041 3041 3039 3040 3045 3044 3038 3040 3046 3042 3035 3037 3041 3043 3045 3048 3051 3055 3058 3060 3063 3064 3065 3067 3068 3068
2900 2903 2907 2909 2910 2911 2913 2917 2923 2928 2932 2936 2938 2940 2942 2945 2948 2951 2954 2958 2960 2963 2966 2967 2968 2971 2975 2980 2983 2984 2985 2986 2988 2990 2994 2997 2999 3001 3002 3004 3006 3010 3013 3013 3013 3016 3015 3013 3017 3021 3019 3020 3023 3025 3027 3030 3030 3030 3030 3032 3035 3036 3036 3036 3035 3037 3039 3038 3038 3040 3042 3039 3036 3037 3039 3040 3043 3046 3049 3052 3054 3056 3058 3060 3062 3063 3064 3065
2898 2900 2904 2907 2910 2912 2913 2917 2922 2926 2929 2933 2935 2936 2938 2940 2943 2947 2951 2953 2955 2957 2960 2962 2964 2968 2971 2975 2978 2977 2977 2979 2981 2984 2988 2990 2993 2995 2996 2997 2999 3004 3007 3008 3009 3011 3011 3009 3013 3018 3016 3014 3016 3021 3023 3024 3025 3026 3026 3028 3032 3033 3034 3035 3035 3036 3038 3037 3038 3039 3038 3034 3033 3034 3036 3038 3040 3044 3046 3047 3050 3053 3055 3057 3058 3060 3061 3061
2896 2898 2901 2904 2907 2911 2913 2916 2920 2924 2927 2929 2930 2932 2935 2937 2940 2944 2948 2951 2953 2954 2956 2958 2962 2966 2969 2972 2974 2973 2974 2976 2978 2980 2983 2985 2987 2989 2991 2993 2995 2998 3001 3003 3005 3006 3007 3007 3010 3015 3012 3008 3012 3017 3017 3019 3022 3019 3018 3022 3027 3029 3030 3031 3030 3031 3032 3031 3033 3034 3032 3027 3026 3029 3033 3034 3036 3038 3040 3043 3047 3050 3051 3053 3054 3055 3056 3056
2895 2897 2901 2903 2906 2909 2912 2915 2919 2922 2923 2925 2927 2928 2931 2934 2938 2943 2947 2950 2952 2953 2955 2958 2961 2964 2966 2968 2970 2972 2973 2974 2976 2978 2979 2980 2982 2985 2987 2988 2990 2992 2995 2998 2998 2999 3002 3003 3005 3009 3007 3004 3007 3010 3013 3018 3015 3005 3005 3014 3020 3022 3024 3025 3025 3026 3027 3028 3029 3027 3023 3021 3023 3027 3029 3029 3030 3031 3034 3037 3041 3044 3046 3048 3048 3049 3051 3053